Vorticity
nan nan nan nan nan nan nan nan nan nan nan nan nan nan nan nan nan nan nan nan nan nan nan nan nan nan nan nan nan nan nan nan nan nan nan nan nan nan nan nan nan nan nan nan nan nan nan nan nan nan nan nan nan nan nan nan nan nan nan nan nan nan nan nan nan nan nan nan nan
nan 10 10 10 10 9 9 8 7 8 9 9 9 9 9 8 8 8 9 9 9 8 8 8 7 8 7 8 9 9 8 8 8 8 8 8 9 9 9 9 9 8 8 8 8 9 8 8 8 9 9 9 8 9 9 9 8 8 8 9 10 9 8 7 8 8 9 10 nan
nan 10 9 9 10 10 9 8 8 8 8 9 9 9 9 9 9 9 9 8 8 8 8 8 8 7 7 9 9 9 8 8 8 8 8 8 8 8 9 9 8 9 9 9 8 8 8 8 8 8 9 8 8 8 9 9 8 8 8 10 10 8 7 8 9 9 10 9 nan
nan 9 9 9 10 10 9 9 9 8 8 8 8 9 10 10 11 10 9 8 8 8 9 9 8 8 8 8 8 9 8 8 8 8 8 7 8 8 8 8 8 9 9 9 8 8 9 9 9 9 9 9 8 8 8 8 8 8 9 9 8 8 7 8 9 9 9 9 nan
nan 9 9 8 8 9 9 9 9 9 8 8 8 9 10 11 11 11 10 9 9 9 9 9 8 8 8 7 7 8 8 8 8 9 8 7 8 8 8 8 8 9 9 9 8 9 9 10 10 9 9 9 9 9 8 7 8 8 8 8 8 8 8 8 9 9 9 8 nan
nan 8 10 10 9 9 10 10 9 8 8 8 9 10 10 10 10 10 10 10 9 9 9 9 8 8 8 8 8 8 8 8 8 8 7 8 8 7 7 8 9 9 9 9 9 10 10 10 9 9 8 8 9 9 8 8 7 7 7 7 8 8 9 9 9 9 8 6 nan
nan 8 8 9 10 10 10 10 9 8 8 9 9 9 10 10 10 10 9 9 9 9 9 8 8 8 8 8 8 8 8 8 8 8 8 8 7 7 8 8 9 9 9 10 10 11 11 10 8 8 8 9 9 8 8 7 6 6 6 7 9 9 9 9 9 8 6 5 nan
nan 7 7 8 9 9 10 10 10 10 10 10 9 9 8 9 9 9 9 9 10 10 9 8 8 8 8 8 8 8 7 8 8 8 8 7 7 8 8 9 9 9 10 11 11 10 10 9 8 8 8 9 9 8 7 6 6 6 7 9 9 9 9 10 8 7 6 7 nan
nan 7 7 8 9 10 10 10 10 11 11 11 10 9 9 9 8 8 8 9 10 9 9 8 8 8 8 8 8 8 8 8 8 8 8 7 7 8 9 9 9 10 11 11 10 10 10 9 8 8 8 8 7 6 6 6 7 7 9 11 9 8 8 8 7 7 7 8 nan
nan 7 8 8 9 10 9 8 8 9 9 10 10 10 10 9 8 8 8 8 8 8 8 8 8 8 8 8 8 8 8 8 8 8 8 8 8 8 9 8 8 9 10 10 10 9 9 8 7 7 7 7 7 6 7 7 7 8 10 10 8 7 8 8 8 8 8 8 nan
nan 9 9 9 9 9 9 8 7 7 8 9 9 10 9 8 8 8 9 9 7 7 8 9 8 8 8 8 8 8 8 8 8 8 8 8 8 9 9 8 8 9 9 10 10 9 8 7 6 6 7 7 7 8 9 8 8 8 9 8 7 8 10 9 9 9 8 7 nan
nan 9 10 10 10 10 9 9 8 7 7 8 9 9 9 8 8 8 8 9 8 8 9 9 8 7 7 7 7 8 8 8 8 8 8 8 9 9 9 9 8 8 9 10 10 9 8 6 5 6 7 8 8 8 8 8 8 8 9 8 8 9 9 8 8 9 8 6 nan
nan 10 10 11 11 10 9 9 8 7 7 7 8 8 8 8 8 8 8 8 8 8 9 9 8 7 7 7 8 8 8 8 8 8 8 8 9 9 9 9 8 8 9 11 10 8 6 6 6 6 7 9 8 7 7 8 8 9 9 9 9 9 7 7 8 8 7 6 nan
nan 10 10 9 9 9 9 8 8 7 7 7 8 8 8 8 8 8 8 7 8 8 9 9 8 7 7 7 8 8 8 9 8 8 8 8 8 8 8 8 8 8 9 10 9 7 7 7 7 8 8 8 8 8 8 9 9 9 9 9 9 8 7 8 8 8 7 7 nan
nan 9 8 7 7 7 8 8 7 7 7 7 7 8 8 8 8 8 8 8 8 9 8 8 8 8 8 8 8 8 9 9 8 8 7 8 8 8 8 8 8 8 8 9 9 8 8 9 9 9 8 8 8 9 9 9 9 9 9 9 8 8 8 8 8 8 8 8 nan
nan 8 7 8 7 7 8 8 8 7 7 7 7 8 8 8 8 8 8 9 9 8 7 7 8 8 8 9 10 10 10 9 8 7 7 7 7 8 8 8 8 8 8 9 8 8 9 9 9 9 9 8 9 9 9 9 9 9 9 9 8 8 8 8 9 9 9 8 nan
nan 8 8 8 9 9 9 8 8 8 8 8 8 8 8 8 8 8 8 9 9 7 7 7 9 8 8 9 10 10 10 9 7 7 7 7 7 8 8 8 9 9 9 9 9 8 8 8 9 9 9 9 9 9 9 9 9 9 10 9 9 9 9 9 10 9 9 8 nan
nan 7 8 9 9 8 8 8 9 9 8 8 8 9 9 9 9 8 8 8 8 7 7 8 9 9 8 9 9 9 8 8 7 7 7 8 8 8 9 9 10 10 10 10 9 8 8 8 9 9 9 9 9 9 9 10 10 10 10 10 10 10 10 10 10 9 8 7 nan
nan 8 9 9 8 7 7 8 8 9 9 8 9 9 9 9 9 8 8 8 8 8 7 8 9 9 8 8 8 8 8 8 7 8 8 9 9 9 9 9 10 10 10 10 9 9 9 9 8 8 8 8 9 9 10 10 11 11 11 12 11 10 10 10 9 8 8 7 nan
nan 8 8 8 7 7 7 7 8 9 9 9 9 9 9 9 8 7 8 8 9 9 8 8 8 8 8 8 8 8 9 9 8 9 9 9 9 9 9 10 10 10 10 10 9 9 9 9 9 8 9 9 9 10 11 11 12 11 12 12 10 10 9 9 8 8 8 8 nan
nan 7 7 7 7 8 8 8 8 9 9 9 9 9 9 9 8 8 8 9 9 9 8 8 8 8 8 8 8 9 10 9 9 9 10 10 9 10 10 11 10 10 10 10 9 9 9 9 9 9 10 10 11 11 11 11 11 11 12 11 9 9 9 9 8 8 8 9 nan
nan 7 7 8 8 9 9 9 9 9 9 9 9 8 8 8 8 8 9 9 8 8 8 9 9 9 9 8 9 9 10 9 8 9 9 10 10 10 11 11 10 9 9 10 10 10 10 10 10 10 11 11 11 11 11 11 11 11 11 9 9 8 8 9 9 9 9 9 nan
nan 8 8 9 9 9 9 10 10 9 9 9 9 8 8 8 8 8 9 8 8 8 9 10 10 10 10 9 9 9 9 8 7 8 9 9 9 9 10 10 10 10 11 12 10 8 8 9 11 11 11 11 11 11 12 12 11 11 10 9 9 9 9 9 9 9 9 8 nan
nan 8 9 10 10 10 9 9 9 9 9 8 8 8 8 8 8 8 8 8 8 9 10 10 10 10 10 10 10 9 8 7 7 8 8 8 9 9 10 11 11 12 12 8 -0 -3 -0 5 8 10 11 11 12 12 12 12 11 10 9 9 9 9 9 9 9 8 8 8 nan
nan 9 9 10 10 10 10 9 9 9 9 8 8 8 8 8 8 8 8 8 9 9 10 10 10 10 10 10 10 9 8 8 7 8 8 8 9 10 11 11 11 12 10 -3 -13 -10 -2 5 8 9 11 12 12 12 12 12 10 10 9 8 9 9 9 9 9 8 8 8 nan
nan 9 9 10 10 10 10 9 9 8 8 9 8 8 8 9 9 9 8 8 9 10 10 10 10 9 9 10 9 9 9 9 9 9 8 8 9 10 10 10 11 10 3 -10 -12 -4 3 7 10 12 15 15 12 12 12 11 10 10 9 9 9 9 9 8 8 8 8 8 nan
nan 9 9 10 10 10 9 9 9 8 9 8 8 8 9 9 9 8 9 9 10 10 11 10 9 9 11 10 8 8 8 8 9 9 9 9 9 9 9 10 10 6 -5 -13 -7 2 8 10 11 13 18 17 13 12 12 10 10 10 11 11 10 9 8 7 7 7 8 7 nan
nan 9 9 10 10 9 9 9 9 9 9 9 9 9 9 9 9 9 9 9 10 10 10 10 11 11 11 8 7 7 8 9 10 10 10 10 9 9 9 9 7 -0 -10 -11 -1 6 9 10 11 11 14 18 20 15 13 11 11 12 12 11 10 9 9 8 7 6 7 7 nan
nan 9 9 9 9 9 9 9 9 9 9 9 9 9 9 9 9 9 9 9 9 10 10 10 10 9 7 6 7 9 10 10 10 10 9 8 9 9 8 8 6 -1 -7 -5 3 7 9 10 10 10 11 19 24 17 14 12 12 11 11 10 9 8 7 6 5 5 6 8 nan
nan 9 9 9 9 8 9 9 9 9 9 9 9 9 8 8 8 9 9 10 10 9 9 9 8 6 5 7 9 10 10 10 10 9 7 7 7 7 8 9 7 2 -4 -3 4 7 8 10 10 10 10 18 25 22 16 11 11 10 10 9 7 6 4 5 6 6 7 7 nan
nan 9 9 9 8 8 9 9 9 9 9 9 9 8 8 8 9 10 10 10 9 8 9 8 7 7 8 10 10 9 8 9 9 8 7 6 7 9 10 10 8 3 -4 -3 3 6 8 10 10 10 10 18 27 25 17 11 10 10 8 6 5 5 7 9 9 8 6 7 nan
nan 9 9 9 8 8 8 9 9 10 9 9 8 8 9 9 10 10 9 8 8 8 9 8 7 8 9 10 9 8 8 8 8 7 7 7 10 11 9 9 10 3 -5 -4 3 7 9 10 11 11 10 19 29 25 18 12 11 10 8 7 7 9 12 11 8 6 6 8 nan
nan 9 9 8 8 8 9 10 10 9 9 8 8 9 9 10 10 9 9 9 9 9 9 8 8 9 10 10 9 8 8 8 8 8 8 10 10 9 9 12 10 0 -7 -3 4 8 9 11 11 11 10 22 33 27 18 13 11 10 9 9 11 12 11 9 7 6 7 9 nan
nan 9 9 8 8 9 9 9 9 9 8 8 9 9 10 9 9 9 10 10 10 10 9 9 10 10 10 9 8 8 7 7 9 9 10 10 10 9 9 11 6 -4 -7 -1 6 8 10 11 11 11 14 28 35 26 16 12 11 10 9 10 11 10 9 8 7 7 8 11 nan
nan 9 9 8 8 9 9 9 9 8 8 8 8 9 10 10 9 9 9 9 9 9 9 10 10 10 9 8 8 7 6 7 9 9 9 9 9 8 9 11 4 -4 -5 1 6 8 10 11 11 13 21 34 33 21 13 12 12 11 10 10 10 8 8 7 7 8 10 11 nan
nan 9 8 8 9 9 9 9 8 8 8 8 9 10 10 11 10 10 9 9 9 9 9 9 9 8 8 8 8 7 7 8 9 9 8 8 9 10 10 11 6 -1 -1 2 5 8 9 11 12 16 27 35 27 15 11 13 13 11 10 9 8 7 7 8 9 10 12 13 nan
nan 9 8 8 8 9 9 9 8 7 8 8 10 11 11 11 11 10 9 9 9 9 9 9 8 7 7 7 7 7 7 8 8 7 8 9 10 10 10 11 8 3 0 0 4 7 9 11 13 19 30 31 19 14 13 15 13 10 8 8 7 7 9 11 12 13 13 11 nan
nan 9 8 8 8 8 9 8 7 8 8 10 10 10 10 10 10 10 10 9 9 9 9 8 7 7 7 6 7 7 8 8 8 8 9 10 10 9 8 10 10 6 -0 -3 2 6 9 11 13 19 28 27 18 16 15 13 9 8 8 8 8 8 11 13 12 13 12 5 nan
nan 9 9 9 9 9 8 8 8 8 9 10 10 9 9 9 9 10 10 10 9 8 8 7 6 6 6 7 8 9 10 9 9 10 10 10 7 5 7 11 11 6 -1 -4 1 6 9 11 12 17 26 28 21 17 14 10 7 7 9 10 10 10 12 12 12 12 10 3 nan
nan 10 9 9 9 9 8 8 8 9 10 9 9 9 10 10 9 10 10 10 9 8 7 6 6 6 6 7 10 10 10 10 11 11 10 8 5 4 10 15 11 7 1 -1 1 5 8 10 12 16 28 29 20 16 13 9 8 8 10 11 11 11 12 12 12 11 9 6 nan
nan nan nan nan nan nan nan nan nan nan nan nan nan nan nan nan nan nan nan nan nan nan nan nan nan nan nan nan nan nan nan nan nan nan nan nan nan nan nan nan nan nan nan nan nan nan nan nan nan nan nan nan nan nan nan nan nan nan nan nan nan nan nan nan nan nan nan nan nan
CAPE
nan nan nan nan nan nan nan nan nan nan nan nan nan nan nan nan nan nan nan nan nan nan nan nan nan nan nan nan nan nan nan nan nan nan nan nan nan nan nan nan nan nan nan nan nan nan nan nan nan nan nan nan nan nan nan nan nan nan nan nan nan nan nan nan nan nan nan nan nan
nan nan nan nan nan nan nan nan nan nan nan nan nan nan nan nan nan nan nan nan nan nan nan nan nan nan nan nan nan nan nan nan nan nan nan nan nan nan nan nan nan nan nan nan nan nan nan nan nan nan nan nan nan nan nan nan nan nan nan nan nan nan nan nan nan nan nan nan nan
nan nan nan nan nan nan nan nan nan nan nan nan nan nan nan nan nan nan nan nan nan nan nan nan nan nan nan nan nan nan nan nan nan nan nan nan nan nan nan nan nan nan nan nan nan nan nan nan nan nan nan nan nan nan nan nan nan nan nan nan nan nan nan nan nan nan nan nan nan
nan nan nan nan nan nan nan nan nan nan nan nan nan nan nan nan nan nan nan nan nan nan nan nan nan nan nan nan nan nan nan nan nan nan nan nan nan nan nan nan nan nan nan nan nan nan nan nan nan nan nan nan nan nan nan nan nan nan nan nan nan nan nan nan nan nan nan nan nan
nan nan nan nan nan nan nan nan nan nan nan nan nan nan nan nan nan nan nan nan nan nan nan nan nan nan nan nan nan nan nan nan nan nan nan nan nan nan nan nan nan nan nan nan nan nan nan nan nan nan nan nan nan nan nan nan nan nan nan nan nan nan nan nan nan nan nan nan nan
nan nan nan nan nan nan nan nan nan nan nan nan nan nan nan nan nan nan nan nan nan nan nan nan nan nan nan nan nan nan nan nan nan nan nan nan nan nan nan nan nan nan nan nan nan nan nan nan nan nan nan nan nan nan nan nan nan nan nan nan nan nan nan nan nan nan nan nan nan
nan nan nan nan nan nan nan nan nan nan nan nan nan nan nan nan nan nan nan nan nan nan nan nan nan nan nan nan nan nan nan nan nan nan nan nan nan nan nan nan nan nan nan nan nan nan nan nan nan nan nan nan nan nan nan nan nan nan nan nan nan nan nan nan nan nan nan nan nan
nan nan nan nan nan nan nan nan nan nan nan nan nan nan nan nan nan nan nan nan nan nan nan nan nan nan nan nan nan nan nan nan nan nan nan nan nan nan nan nan nan nan nan nan nan nan nan nan nan nan nan nan nan nan nan nan nan nan nan nan nan nan nan nan nan nan nan nan nan
nan nan nan nan nan nan nan nan nan nan nan nan nan nan nan nan nan nan nan nan nan nan nan nan nan nan nan nan nan nan nan nan nan nan nan nan nan nan nan nan nan nan nan nan nan nan nan nan nan nan nan nan nan nan nan nan nan nan nan nan nan nan nan nan nan nan nan nan nan
nan nan nan nan nan nan nan nan nan nan nan nan nan nan nan nan nan nan nan nan nan nan nan nan nan nan nan nan nan nan nan nan nan nan nan nan nan nan nan nan nan nan nan nan nan nan nan nan nan nan nan nan nan nan nan nan nan nan nan nan nan nan nan nan nan nan nan nan nan
nan nan nan nan nan nan nan nan nan nan nan nan nan nan nan nan nan nan nan nan nan nan nan nan nan nan nan nan nan nan nan nan nan nan nan nan nan nan nan nan nan nan nan nan nan nan nan nan nan nan nan nan nan nan nan nan nan nan nan nan nan nan nan nan nan nan nan nan nan
nan nan nan nan nan nan nan nan nan nan nan nan nan nan nan nan nan nan nan nan nan nan nan nan nan nan nan nan nan nan nan nan nan nan nan nan nan nan nan nan nan nan nan nan nan nan nan nan nan nan nan nan nan nan nan nan nan nan nan nan nan nan nan nan nan nan nan nan nan
nan nan nan nan nan nan nan nan nan nan nan nan nan nan nan nan nan nan nan nan nan nan nan nan nan nan nan nan nan nan nan nan nan nan nan nan nan nan nan nan nan nan nan nan nan nan nan nan nan nan nan nan nan nan nan nan nan nan nan nan nan nan nan nan nan nan nan nan nan
nan nan nan nan nan nan nan nan nan nan nan nan nan nan nan nan nan nan nan nan nan nan nan nan nan nan nan nan nan nan nan nan nan nan nan nan nan nan nan nan nan nan nan nan nan nan nan nan nan nan nan nan nan nan nan nan nan nan nan nan nan nan nan nan nan nan nan nan nan
nan nan nan nan nan nan nan nan nan nan nan nan nan nan nan nan nan nan nan nan nan nan nan nan nan nan nan nan nan nan nan nan nan nan nan nan nan nan nan nan nan nan nan nan nan nan nan nan nan nan nan nan nan nan nan nan nan nan nan nan nan nan nan nan nan nan nan nan nan
nan nan nan nan nan nan nan nan nan nan nan nan nan nan nan nan nan nan nan nan nan nan nan nan nan nan nan nan nan nan nan nan nan nan nan nan nan nan nan nan nan nan nan nan nan nan nan nan nan nan nan nan nan nan nan nan nan nan nan nan nan nan nan nan nan nan nan nan nan
nan nan nan nan nan nan nan nan nan nan nan nan nan nan nan nan nan nan nan nan nan nan nan nan nan nan nan nan nan nan nan nan nan nan nan nan nan nan nan nan nan nan nan nan nan nan nan nan nan nan nan nan nan nan nan nan nan nan nan nan nan nan nan nan nan nan nan nan nan
nan nan nan nan nan nan nan nan nan nan nan nan nan nan nan nan nan nan nan nan nan nan nan nan nan nan nan nan nan nan nan nan nan nan nan nan nan nan nan nan nan nan nan nan nan nan nan nan nan nan nan nan nan nan nan nan nan nan nan nan nan nan nan nan nan nan nan nan nan
nan nan nan nan nan nan nan nan nan nan nan nan nan nan nan nan nan nan nan nan nan nan nan nan nan nan nan nan nan nan nan nan nan nan nan nan nan nan nan nan nan nan nan nan nan nan nan nan nan nan nan nan nan nan nan nan nan nan nan nan nan nan nan nan nan nan nan nan nan
nan nan nan nan nan nan nan nan nan nan nan nan nan nan nan nan nan nan nan nan nan nan nan nan nan nan nan nan nan nan nan nan nan nan nan nan nan nan nan nan nan nan nan nan nan nan nan nan nan nan nan nan nan nan nan nan nan nan nan nan nan nan nan nan nan nan nan nan nan
nan nan nan nan nan nan nan nan nan nan nan nan nan nan nan nan nan nan nan nan nan nan nan nan nan nan nan nan nan nan nan nan nan nan nan nan nan nan nan nan nan nan nan nan nan nan nan nan nan nan nan nan nan nan nan nan nan nan nan nan nan nan nan nan nan nan nan nan nan
nan nan nan nan nan nan nan nan nan nan nan nan nan nan nan nan nan nan nan nan nan nan nan nan nan nan nan nan nan nan nan nan nan nan nan nan nan nan nan nan nan nan nan nan nan nan nan nan nan nan nan nan nan nan nan nan nan nan nan nan nan nan nan nan nan nan nan nan nan
nan nan nan nan nan nan nan nan nan nan nan nan nan nan nan nan nan nan nan nan nan nan nan nan nan nan nan nan nan nan nan nan nan nan nan nan nan nan nan nan nan nan nan nan nan nan nan nan nan nan nan nan nan nan nan nan nan nan nan nan nan nan nan nan nan nan nan nan nan
nan nan nan nan nan nan nan nan nan nan nan nan nan nan nan nan nan nan nan nan nan nan nan nan nan nan nan nan nan nan nan nan nan nan nan nan nan nan nan nan nan nan nan nan nan nan nan nan nan nan nan nan nan nan nan nan nan nan nan nan nan nan nan nan nan nan nan nan nan
nan nan nan nan nan nan nan nan nan nan nan nan nan nan nan nan nan nan nan nan nan nan nan nan nan nan nan nan nan nan nan nan nan nan nan nan nan nan nan nan nan nan nan nan nan nan nan nan nan nan nan nan nan nan nan nan nan nan nan nan nan nan nan nan nan nan nan nan nan
nan nan nan nan nan nan nan nan nan nan nan nan nan nan nan nan nan nan nan nan nan nan nan nan nan nan nan nan nan nan nan nan nan nan nan nan nan nan nan nan nan nan nan nan nan nan nan nan 0 0 nan nan nan nan nan nan nan nan nan nan nan nan nan nan nan nan nan nan nan
nan nan nan nan nan nan nan nan nan nan nan nan nan nan nan nan nan nan nan nan nan nan nan nan nan nan nan nan nan nan nan nan nan nan nan nan nan nan nan nan nan nan nan nan nan nan nan nan 2 2 2 nan nan nan nan nan nan nan nan nan nan nan nan nan nan nan nan nan nan
nan nan nan nan nan nan nan nan nan nan nan nan nan nan nan nan nan nan nan nan nan nan nan nan nan nan nan nan nan nan nan nan nan nan nan nan nan nan nan nan nan nan nan nan nan nan nan nan 2 2 4 nan nan nan nan nan nan nan nan nan nan nan nan nan nan nan nan nan nan
nan nan nan nan nan nan nan nan nan nan nan nan nan nan nan nan nan nan nan nan nan nan nan nan nan nan nan nan nan nan nan nan nan nan nan nan nan nan nan nan nan nan nan nan nan nan nan 0 2 2 6 5 nan nan nan nan nan nan nan nan nan nan nan nan nan nan nan nan nan
nan nan nan nan nan nan nan nan nan nan nan nan nan nan nan nan nan nan nan nan nan nan nan nan nan nan nan nan nan nan nan nan nan nan nan nan nan nan nan nan nan nan nan nan nan nan nan 0 2 2 6 8 nan nan nan nan nan nan nan nan nan nan nan nan nan nan nan nan nan
nan nan nan nan nan nan nan nan nan nan nan nan nan nan nan nan nan nan nan nan nan nan nan nan nan nan nan nan nan nan nan nan nan nan nan nan nan nan nan nan nan nan nan nan nan nan nan 0 2 2 5 8 0 nan nan nan nan nan nan nan nan nan nan nan nan nan nan nan nan
nan nan nan nan nan nan nan nan nan nan nan nan nan nan nan nan nan nan nan nan nan nan nan nan nan nan nan nan nan nan nan nan nan nan nan nan nan nan nan nan nan nan nan nan nan nan nan 1 2 2 3 7 1 nan nan nan nan nan nan nan nan nan nan nan nan nan nan nan nan
nan nan nan nan nan nan nan nan nan nan nan nan nan nan nan nan nan nan nan nan nan nan nan nan nan nan nan nan nan nan nan nan nan nan nan nan nan nan nan nan nan nan nan nan nan nan nan 0 1 1 3 7 0 nan nan nan nan nan nan nan nan nan nan nan nan nan nan nan nan
nan nan nan nan nan nan nan nan nan nan nan nan nan nan nan nan nan nan nan nan nan nan nan nan nan nan nan nan nan nan nan nan nan nan nan nan nan nan nan nan nan nan nan nan nan nan nan 0 1 1 2 9 nan nan nan nan nan nan nan nan nan nan nan nan nan nan nan nan nan
nan nan nan nan nan nan nan nan nan nan nan nan nan nan nan nan nan nan nan nan nan nan nan nan nan nan nan nan nan nan nan nan nan nan nan nan nan nan nan nan nan nan nan nan nan nan nan 0 1 1 4 7 nan nan nan nan nan nan nan nan nan nan nan nan nan nan nan nan nan
nan nan nan nan nan nan nan nan nan nan nan nan nan nan nan nan nan nan nan nan nan nan nan nan nan nan nan nan nan nan nan nan nan nan nan nan nan nan nan nan nan nan nan nan nan nan nan 0 2 2 7 1 nan nan nan nan nan nan nan nan nan nan nan nan nan nan nan nan nan
nan nan nan nan nan nan nan nan nan nan nan nan nan nan nan nan nan nan nan nan nan nan nan nan nan nan nan nan nan nan nan nan nan nan nan nan nan nan nan nan nan nan nan nan nan nan nan 0 3 3 9 nan nan nan nan 1 0 nan nan nan nan nan nan nan nan nan nan nan nan
nan nan nan nan nan nan nan nan nan nan nan nan nan nan nan nan nan nan nan nan nan nan nan nan nan nan nan nan nan nan nan nan nan nan nan nan nan nan nan nan nan nan nan nan nan nan nan 1 8 8 12 nan nan 0 0 0 0 nan nan nan nan nan nan nan nan nan 0 nan nan
nan nan nan nan nan nan nan nan nan nan nan nan nan nan nan nan nan nan nan nan nan nan nan nan nan nan nan nan nan nan nan nan nan nan nan nan nan nan nan nan nan nan nan nan nan nan 0 3 13 13 22 8 0 1 1 0 nan nan nan nan nan nan nan 1 1 1 1 nan 20
nan nan nan nan nan nan nan nan nan nan nan nan nan nan nan nan nan nan nan nan nan nan nan nan nan nan nan nan nan nan nan nan nan nan nan nan nan nan nan nan nan nan nan nan nan nan 1 8 18 18 30 12 3 1 1 0 nan nan nan 0 1 3 3 5 8 8 nan nan 14
nan nan nan nan nan nan nan nan nan nan nan nan nan nan nan nan nan nan nan nan nan nan nan nan nan nan nan nan nan nan nan nan nan nan nan nan nan nan nan nan nan nan nan nan nan nan 3 12 23 23 35 8 4 2 2 1 0 0 0 2 4 6 6 7 4 4 nan nan nan